2023-001U (55027 NORAD) Tracking and Keplerian Element Data

This shows tracking and keplerian element data for the satellite.

Feedback or suggestion? Click here.




ElementValue
Catalog55027
Name2023-001U
Epoch Orbit169
Epoch Day13.78651577
Epoch Year2023
RAAN75.7272
Inclination97.5004
Eccentricity0.0011732
Argument of Perigee179.7503
Mean Anonmoly180.3736
Mean Motion15.12415791
Decay Rate0.00010023
L11 55027U 23001U 23013.78651577 .00010023 00000+0 57948-3 0 9991
L22 55027 97.5004 75.7272 0011732 179.7503 180.3736 15.12415791 1692



Live tracking and technical data element details for 2023-001U (NORAD 55027). 2023-001U can be tracked NOW for your location showing map with azimuth and elevation plus other details from your city location.







IsCatalogInMostPopularTable: catalog: 55027, numindb: 5
Update: records affected: 1



GetName: 55027 2023-001U

Hit Count: updated at: Tue, 07 Feb 2023 15:52:41 GMT